Regional Weather Roundup
Issued by NWS

Home | Current Version | Previous Version | Text Only | Print | Product List | Glossary Off
Versions: 1 2 3 4 5 6 7 8 9 10 11 12 13 14 15 16 17 18 19 20 21 22 23 24 25 26 27 28 29 30 31 32 33 34 35 36 37 38 39 40 41 42 43 44 45 46 47 48 49 50

000
ASUS43 KMPX 131101
RWRMN
WEATHER ROUNDUP FOR MINNESOTA
NATIONAL WEATHER SERVICE TWIN CITIES/CHANHASSEN MN
500 AM CST WED DEC 13 2017


NOTE: "FAIR" INDICATES FEW OR NO CLOUDS BELOW 12,000 FEET WITH NO
SIGNIFICANT WEATHER AND/OR OBSTRUCTIONS TO VISIBILITY. N/A MEANS
CURRENT SKY AND/OR WEATHER CONDITIONS ARE NOT AVAILABLE.

MNZ060>063-068>070-131200-
   Twin Cities Metro

CITY           SKY/WX    TMP DP  RH WIND       PRES   REMARKS
TWIN CITIES    CLOUDY    28  25  88 SE6       29.34F WCI  22
ST PAUL        CLOUDY    29  25  85 SE7       29.36F WCI  22
CRYSTAL        CLOUDY    29  22  75 E5        29.32F WCI  24
BLAINE         CLOUDY    28  25  86 E7        29.32F WCI  21
LAKEVILLE      CLOUDY    28  25  86 SE3       29.33F
EDEN PRAIRIE   CLOUDY    31  25  78 SE3       29.32F
SOUTH ST PAUL  CLOUDY    28  24  83 CALM      29.35F
LAKE ELMO      FAIR      30  27  86 SE6       29.37F WCI  24
$$
MNZ001>005-007-008-013>017-022>024-027-028-131200-
   Northwest Minnesota

CITY           SKY/WX    TMP DP  RH WIND       PRES   REMARKS
BEMIDJI        CLOUDY    20  18  92 N5        29.44R WCI  13
HALLOCK        CLOUDY    25  21  86 N17G25    29.60R FOG     WCI  11
ROSEAU         CLOUDY    18  12  79 N9        29.55R FOG     WCI   6
WARROAD        CLOUDY    16  12  86 MISG      29.54R FOG
CROOKSTON      CLOUDY    25  25 100 N25       29.56R FOG     WCI   9
FOSSTON        CLOUDY    21  19  93 NW21G26   29.51R WCI   6
DETROIT LAKES  CLOUDY    32  30  93 NW28G33   29.46R WCI  18
MOORHEAD       MOCLDY    30  27  86 N39G45    29.55R WCI  13
PARK RAPIDS    CLOUDY    24  21  88 NW5       29.39R WCI  18
MAHNOMEN       CLOUDY    29  27  92 N28G36    29.49R WCI  14
$$
MNZ006-009>011-018-025>026-131200-
   North Central Minnesota

CITY           SKY/WX    TMP DP  RH WIND       PRES   REMARKS
BAUDETTE       CLOUDY    15  13  91 N6        29.50R WCI   6
FLAG ISLAND    LGT SNOW  14  12  92 N13       29.56R WCI   0
INTL FALLS     LGT SNOW  16  12  84 NE5       29.49R FOG     WCI   9
WASKISH        CLOUDY    16  14  93 N3        29.48R
BIG FORK       CLOUDY    16  12  86 CALM      29.43R
LONGVILLE      CLOUDY    18  16  93 CALM      29.41R
GRAND RAPIDS   FLURRIES  14  11  87 VRB3      29.43R
CRANE LAKE     LGT SNOW  16  12  86 CALM      29.49F
ORR            MIX PCPN  16  12  86 CALM      29.41F
COOK           CLOUDY    18  16  93 CALM      29.43F
WALKER         CLOUDY    18  16  90 NE5       29.42R WCI  11
$$
MNZ012-019>021-037-131200-
   Northeast Minnesota

CITY           SKY/WX    TMP DP  RH WIND       PRES   REMARKS
DULUTH         LGT SNOW  16  15  96 E14       29.40F VSB 1   WCI   2
ELY            LGT SNOW  18  12  79 E10       29.44F WCI   6
HIBBING        CLOUDY    16  13  88 E6        29.41F WCI   7
EVELETH        LGT SNOW  17  14  86 E3        29.43R
DULUTH HARBOR  LGT SNOW  21  18  86 E15       29.47F VSB 1   WCI   8
TWO HARBORS    LGT SNOW  21  18  86 E9        29.42F WCI  11
GRAND MARAIS     N/A     23  19  85 E21G28    29.58F WCI   8
G MARAIS ARPRT LGT SNOW  16  10  79 E12G17    29.49F VSB 3/4 WCI   3
$$
MNZ029>031-032-039>041-046>048-054>057-064-131200-
   West Central Minnesota

CITY           SKY/WX    TMP DP  RH WIND       PRES   REMARKS
FERGUS FALLS   CLOUDY    34  34 100 NW28G38   29.50R WCI  20
WHEATON        LGT SNOW  34  32  93 NW20G28   29.53R WCI  22
MORRIS         LGT SNOW  34  32  93 NW28G36   29.45R WCI  20
ALEXANDRIA     LGT RAIN  35  30  82 NW17G24   29.40R WCI  25
ELBOW LAKE     LGT SNOW  32  32 100 W21G29    29.46R WCI  20
WADENA         FLURRIES  25  25 100 W3        29.40R
GLENWOOD       FLURRIES  34  28  80 NW18      29.39R WCI  23
APPLETON       LGT RAIN  37  34  87 NW28G38   29.45R
BENSON         CLOUDY    37  30  75 N28G39    29.43R
ORTONVILLE     RAIN      36  30  80 NW21G37   29.50R
MADISON        LGT RAIN  41  36  81 NW29G38   29.47R
WILLMAR        FAIR      37  30  75 NW21      29.38R
$$
MNZ033>034-036-042>043-049>051-058-059-131200-
   Central Minnesota

CITY           SKY/WX    TMP DP  RH WIND       PRES   REMARKS
ST CLOUD       CLOUDY    24  22  91 N3        29.36R
SAUK CENTRE    PTSUNNY   27  26  95 N8        29.38R WCI  19
PAYNESVILLE    PTCLDY    31  28  90 NW5       29.36R WCI  26
AITKIN         CLOUDY    18  16  93 CALM      29.38R
PINE RIVER     LGT SNOW  19  16  86 CALM      29.44R
BRAINERD       LGT SNOW  22  18  85 N5        29.39F FOG     WCI  16
STAPLES        LGT SNOW  21  19  93 N3        29.39R
LONG PRAIRIE   LGT SNOW  23  21  93 NW6       29.37R WCI  16
LITTLE FALLS   LGT SNOW  25  19  80 CALM      29.39R
LITCHFIELD     CLOUDY    32  28  86 W8        29.34S WCI  25
BUFFALO        CLOUDY    29  25  84 CALM      29.32F
MAPLE LAKE     CLOUDY    30  27  91 W6        29.35S WCI  24
HUTCHINSON     CLEAR     35  29  78 W20       29.33S WCI  24
$$
MNZ037-044-045-052-053-131200-
   East Central Minnesota

CITY           SKY/WX    TMP DP  RH WIND       PRES   REMARKS
PRINCETON      CLOUDY    27  23  86 E7        29.32F WCI  19
MORA           CLOUDY    21  19  93 E3        29.38F
CAMBRIDGE      CLOUDY    25  18  74 E5        29.36F WCI  19
RUSH CITY      CLOUDY    22  19  87 E6        29.37F WCI  15
MOOSE LAKE     LGT SNOW  18  14  86 NE6       29.38F WCI   9
HINCKLEY       CLOUDY    21  19  93 E6        29.38F WCI  14
CLOQUET        LGT SNOW  16  12  86 E6        29.39F VSB 3/4 WCI   7
MCGREGOR       CLOUDY    19  16  86 E6        29.39F WCI  11
$$
MNZ071>073-080-081-089-090-097-098-131200-
   Southwest Minnesota

CITY           SKY/WX    TMP DP  RH WIND       PRES   REMARKS
MONTEVIDEO     CLOUDY    39  28  65 N30G37    29.42R
GRANITE FALLS  PTCLDY    42  29  59 NW24G32   29.42R
CANBY          DRIZZLE   41  33  73 W29G38    29.49R
MARSHALL       MOCLDY    42  28  57 NW30G44   29.43R
REDWOOD FALLS  CLOUDY    42  26  53 NW18G28   29.37R
OLIVIA         CLOUDY    39  28  65 NW21G30   29.36R
PIPESTONE      CLOUDY    39  32  75 NW26G35   29.49R
WINDOM         CLOUDY    41  23  48 W23G31    29.38F
WORTHINGTON    MOCLDY    41  27  57 W21       29.44F
JACKSON        CLOUDY    39  27  60 MISG      29.40F
SLAYTON        CLOUDY    40  27  60 NW28      29.43F
$$
MNZ065>067-074>077-082>085-091>093-131200-
   South Central Minnesota

CITY           SKY/WX    TMP DP  RH WIND       PRES   REMARKS
MANKATO        CLOUDY    36  26  67 W15       29.34F
NEW ULM        CLOUDY    37  27  65 W15       29.35S
ST JAMES       CLOUDY    39  27  60 W20       29.38S
FAIRMONT       CLOUDY    40  25  55 W23       29.38F
GLENCOE        CLOUDY    32  28  85 SW3       29.31F
FARIBAULT      CLOUDY    30  25  80 S7        29.32F WCI  23
OWATONNA       CLOUDY    30  25  80 S7        29.33F WCI  23
WASECA         CLOUDY    32  27  80 SW12      29.34F WCI  23
ALBERT LEA     CLOUDY    30  21  69 SW7       29.36F WCI  23
$$
MNZ078>079-086>088-094>096-131200-
   Southeast Minnesota

CITY           SKY/WX    TMP DP  RH WIND       PRES   REMARKS
ROCHESTER      CLOUDY    27  23  85 S13       29.35F WCI  16
RED WING       CLOUDY    30  21  69 SE6       29.37F WCI  24
STANTON        CLOUDY    31  25  80 S6        29.32F WCI  25
DODGE CENTER   CLOUDY    28  23  80 S12       29.34F WCI  18
WINONA           N/A     30  23  74 SE6       29.40F WCI  24
PRESTON        CLOUDY    27  22  82 S13G20    29.38F WCI  16
$$
ABBREVIATIONS USED IN REMARKS
   TC - TEMPERATURES IN CELSIUS
  WCI - WIND CHILL INDEX
   HX - HEAT INDEX
  VSB - VISIBILITY
$$




USA.gov is the U.S. government's official web portal to all federal, state and local government web resources and services.